Location: Caltech
(34.1382°N, 118.1253°W)
Time: 09:52:06
(UTC-07:00)

SL-08 RB Rocket - Visible Passes

Search period start: 25 May 2016 00:00
Search period end: 04 June 2016 00:00
Orbit: 647 x 686 km, 98.0° (Epoch: 25 May)

Date Brightness Start Highest point End Pass type
(mag) Time Alt. Az. Time Alt. Az. Time Alt. Az.
25 May 5.2 21:33:23 20° E 21:34:08 21° ENE 21:37:31 10° NNE visible
25 May 5.2 23:11:32 30° W 23:11:32 30° W 23:14:59 10° NW visible
26 May 4.1 22:05:28 45° E 22:05:41 46° ENE 22:10:02 10° N visible
26 May 6.3 23:43:36 13° W 23:43:36 13° W 23:45:09 10° WNW visible
27 May 3.7 22:37:33 75° WNW 22:37:33 75° WNW 22:41:55 10° NNW visible
28 May 5.2 21:31:29 19° E 21:32:23 20° ENE 21:35:40 10° NNE visible
28 May 5.1 23:09:38 31° W 23:09:38 31° W 23:13:15 10° NW visible
29 May 4.1 22:03:34 43° E 22:03:56 43° ENE 22:08:14 10° N visible
29 May 6.2 23:41:42 14° W 23:41:42 14° W 23:43:31 10° WNW visible
30 May 3.6 22:35:39 79° W 22:35:39 79° W 22:40:09 10° NNW visible
31 May 5.3 21:29:36 18° E 21:30:39 19° ENE 21:33:49 10° NNE visible
31 May 5.0 23:07:44 33° W 23:07:44 33° W 23:11:30 10° NNW visible
01 Jun 4.2 22:01:41 40° E 22:02:11 41° ENE 22:06:26 10° N visible
01 Jun 6.1 23:39:49 14° W 23:39:49 14° W 23:41:52 10° WNW visible
02 Jun 3.6 22:33:46 82° SW 22:33:50 83° WSW 22:38:22 10° NNW visible
03 Jun 5.4 21:27:42 17° E 21:28:53 18° ENE 21:31:57 10° NNE visible
03 Jun 4.9 23:05:51 34° W 23:05:51 34° W 23:09:46 10° NNW visible
